Flag for Canada Weather past 2 weeks in North Bay, Ontario, Canada

Now
63 °F

Overcast.


Feels Like: 63 °F
Forecast: 56 / 62 °F
Wind: 8 mph from Southwest

Location: North Bay

Current Time: May 24, 2015 at 9:58:51 PM

Latest Report: May 24, 2015 at 9:00 PM


Visibility: 30 mi

Pressure: 30.07 "Hg

Humidity: 49%

Dew point: 43 °F

Location of North BayLocation

Historic Weather in North Bay — Graph

°F

North Bay temperature yesterday

Maximum temperature yesterday: 61 °F (at 6:00 PM)
Minimum temperature yesterday: 28 °F (at 12:00 AM)
Average temperature yesterday: 46 °F

Past Weeks' High & Low Weather Summary

 TemperatureHumidityPressure
High77 °F (May 17, 6:00 PM)100% (May 9, 9:00 PM)30.46 "Hg (May 9, 9:00 PM)
Low28 °F (May 23, 12:00 AM)23% (May 13, 7:00 PM)29.61 "Hg (May 12, 1:01 AM)
Average50 °F74%30.06 "Hg
* Reported May 9 8:00 PM — May 24 8:00 PM, North Bay, Weather by CustomWeather, © 2015

Note: Actual official high and low records may vary slightly from our data, if they occured in-between our weather recording intervals... More about our weather records

Advertising

North Bay weather history for previous 24 hours

 ConditionsComfort  
Time TempWeatherWind HumidityBarometerVisibility
8:00 PM
Sun, May 24
66 °FOvercast.15 mph43%30.06 "Hg30 mi
7:00 PM70 °FOvercast.14 mph38%30.06 "Hg30 mi
6:00 PM72 °FOvercast.16 mph36%30.06 "Hg30 mi
5:00 PM73 °FPartly sunny.14 mph31%30.07 "Hg30 mi
4:00 PM75 °FPartly sunny.20 mph29%30.08 "Hg30 mi
3:00 PM75 °FOvercast.16 mph31%30.09 "Hg30 mi
2:00 PM73 °FOvercast.13 mph33%30.10 "Hg30 mi
1:00 PM70 °FPartly sunny.10 mph38%30.12 "Hg30 mi
12:00 PM66 °FHigh level clouds.13 mph43%30.12 "Hg30 mi
11:00 AM63 °FPartly sunny.12 mph49%30.13 "Hg30 mi
10:00 AM59 °FPassing clouds.10 mph51%30.14 "Hg30 mi
9:00 AM55 °FPartly sunny.9 mph59%30.16 "Hg30 mi
8:00 AM54 °FPartly sunny.10 mph63%30.16 "Hg30 mi
7:00 AM54 °FScattered clouds.7 mph63%30.15 "Hg30 mi
6:00 AM50 °FPassing clouds.8 mph71%30.13 "Hg9 mi
5:00 AM50 °FOvercast.6 mph71%30.12 "Hg9 mi
4:00 AM50 °FPassing clouds.7 mph71%30.12 "Hg9 mi
3:00 AM50 °FOvercast.8 mph71%30.13 "Hg9 mi
2:00 AM50 °FPassing clouds.5 mph71%30.13 "Hg9 mi
1:00 AM50 °FClear.5 mph67%30.15 "Hg9 mi
12:00 AM54 °FOvercast.7 mph58%30.15 "Hg9 mi
11:00 PM
Sat, May 23
54 °FPassing clouds.5 mph58%30.14 "Hg9 mi
10:00 PM54 °FPassing clouds.15 mph54%30.11 "Hg15 mi
9:00 PM55 °FPassing clouds.16 mph51%30.10 "Hg30 mi
Weather by CustomWeather, © 2015

See weather overviewHow to use our weather pages